• In Austria
  • List of Countries
  • For 7 days
  • Water Temperature
  • Satellite Maps
  • Weather Map
  • News
  • Weather Widgets
  • user-avatar
    Login

    Hourly Weather Kenai Peninsula

    Today, 23 January, Tuesday

    Time Temperature Precipitation Wind Pressure Humidity
    00:00 -10°C° 0.3 mm 3 mps 753 mmHg 92%
    01:00 -12°C° 0.3 mm 3 mps 753 mmHg 92%
    02:00 -12°C° 0.3 mm 3 mps 754 mmHg 93%
    03:00 -12°C° 0.2 mm 3 mps 754 mmHg 93%
    04:00 -12°C° 0.2 mm 3 mps 754 mmHg 93%
    05:00 -12°C° 0.2 mm 3 mps 755 mmHg 93%
    06:00 -12°C° 0.1 mm 3 mps 755 mmHg 92%
    07:00 -13°C° 0.1 mm 3 mps 755 mmHg 92%
    08:00 -13°C° 0.1 mm 3 mps 755 mmHg 92%
    09:00 -13°C° 0 mm 3 mps 755 mmHg 91%
    10:00 -13°C° 0 mm 3 mps 756 mmHg 89%
    11:00 -13°C° 0 mm 3 mps 756 mmHg 88%
    12:00 -13°C° 0 mm 3 mps 755 mmHg 87%
    13:00 -13°C° 0 mm 3 mps 755 mmHg 86%
    14:00 -13°C° 0 mm 3 mps 755 mmHg 85%
    15:00 -13°C° 0 mm 3 mps 755 mmHg 85%
    16:00 -14°C° 0 mm 3 mps 755 mmHg 85%
    17:00 -15°C° 0 mm 3 mps 755 mmHg 85%
    18:00 -15°C° 0 mm 3 mps 755 mmHg 84%
    19:00 -15°C° 0 mm 3 mps 755 mmHg 82%
    20:00 -15°C° 0 mm 3 mps 755 mmHg 81%
    21:00 -16°C° 0 mm 3 mps 755 mmHg 80%
    22:00 -16°C° 0 mm 3 mps 755 mmHg 80%
    23:00 -17°C° 0 mm 3 mps 755 mmHg 79%

    Tomorrow, 24 January, Wednesday

    Time Temperature Precipitation Wind Pressure Humidity
    00:00 -17°C° 0 mm 3 mps 755 mmHg 78%
    01:00 -18°C° 0 mm 3 mps 755 mmHg 76%
    02:00 -18°C° 0 mm 3 mps 755 mmHg 75%
    03:00 -19°C° 0 mm 3 mps 755 mmHg 75%
    04:00 -19°C° 0 mm 3 mps 754 mmHg 75%
    05:00 -21°C° 0 mm 3 mps 754 mmHg 75%
    06:00 -21°C° 0 mm 3 mps 754 mmHg 74%
    07:00 -19°C° 0 mm 2 mps 754 mmHg 74%
    08:00 -19°C° 0 mm 2 mps 754 mmHg 73%
    09:00 -19°C° 0 mm 2 mps 755 mmHg 71%
    10:00 -18°C° 0 mm 2 mps 755 mmHg 69%
    11:00 -18°C° 0 mm 2 mps 755 mmHg 66%
    12:00 -18°C° 0 mm 2 mps 755 mmHg 66%
    13:00 -17°C° 0 mm 2 mps 755 mmHg 66%
    14:00 -17°C° 0 mm 2 mps 755 mmHg 66%
    15:00 -18°C° 0 mm 2 mps 755 mmHg 68%
    16:00 -19°C° 0 mm 2 mps 755 mmHg 71%
    17:00 -20°C° 0 mm 2 mps 755 mmHg 73%
    18:00 -20°C° 0 mm 2 mps 755 mmHg 73%
    19:00 -20°C° 0 mm 2 mps 755 mmHg 73%
    20:00 -21°C° 0 mm 2 mps 755 mmHg 73%
    21:00 -21°C° 0 mm 2 mps 755 mmHg 73%
    22:00 -21°C° 0 mm 2 mps 755 mmHg 74%
    23:00 -21°C° 0 mm 2 mps 755 mmHg 74%

    Day after tomorrow, 25 January, Thursday

    Time Temperature Precipitation Wind Pressure Humidity
    00:00 -21°C° 0 mm 2 mps 755 mmHg 74%
    01:00 -23°C° 0 mm 2 mps 755 mmHg 74%
    02:00 -23°C° 0 mm 2 mps 755 mmHg 74%
    03:00 -23°C° 0 mm 2 mps 755 mmHg 74%
    04:00 -23°C° 0 mm 2 mps 754 mmHg 74%
    05:00 -24°C° 0 mm 2 mps 754 mmHg 74%
    06:00 -24°C° 0 mm 2 mps 754 mmHg 75%
    07:00 -24°C° 0 mm 2 mps 754 mmHg 75%
    08:00 -24°C° 0 mm 2 mps 753 mmHg 75%
    09:00 -23°C° 0 mm 2 mps 753 mmHg 73%
    10:00 -23°C° 0 mm 2 mps 753 mmHg 71%
    11:00 -21°C° 0 mm 2 mps 752 mmHg 70%
    12:00 -21°C° 0 mm 2 mps 752 mmHg 69%
    13:00 -21°C° 0 mm 2 mps 752 mmHg 69%
    14:00 -21°C° 0 mm 2 mps 751 mmHg 69%
    15:00 -23°C° 0 mm 3 mps 751 mmHg 71%
    16:00 -24°C° 0 mm 3 mps 751 mmHg 73%
    17:00 -25°C° 0 mm 3 mps 751 mmHg 75%
    18:00 -25°C° 0 mm 3 mps 751 mmHg 75%
    19:00 -25°C° 0 mm 3 mps 750 mmHg 74%
    20:00 -25°C° 0 mm 3 mps 750 mmHg 74%
    21:00 -25°C° 0 mm 3 mps 750 mmHg 75%
    22:00 -25°C° 0 mm 3 mps 750 mmHg 75%
    23:00 -26°C° 0 mm 4 mps 750 mmHg 76%

    26 January, Friday

    Time Temperature Precipitation Wind Pressure Humidity
    00:00 -26°C° 0 mm 4 mps 749 mmHg 76%
    01:00 -26°C° 0 mm 4 mps 749 mmHg 76%
    02:00 -26°C° 0 mm 4 mps 749 mmHg 77%
    03:00 -25°C° 0 mm 4 mps 749 mmHg 77%
    04:00 -24°C° 0 mm 4 mps 749 mmHg 76%
    05:00 -24°C° 0 mm 4 mps 748 mmHg 76%
    06:00 -23°C° 0 mm 4 mps 749 mmHg 78%
    07:00 -20°C° 0 mm 4 mps 749 mmHg 80%
    08:00 -19°C° 0 mm 4 mps 749 mmHg 82%
    09:00 -18°C° 0.1 mm 4 mps 749 mmHg 82%
    10:00 -17°C° 0.1 mm 4 mps 750 mmHg 82%
    11:00 -16°C° 0.1 mm 4 mps 751 mmHg 82%
    12:00 -15°C° 0 mm 4 mps 751 mmHg 82%
    13:00 -13°C° 0 mm 3 mps 751 mmHg 81%
    14:00 -13°C° 0 mm 3 mps 752 mmHg 80%
    15:00 -13°C° 0 mm 3 mps 752 mmHg 81%
    16:00 -14°C° 0 mm 3 mps 753 mmHg 82%
    17:00 -14°C° 0 mm 3 mps 753 mmHg 84%
    18:00 -14°C° 0 mm 3 mps 754 mmHg 83%
    19:00 -14°C° 0 mm 3 mps 754 mmHg 82%
    20:00 -14°C° 0 mm 3 mps 754 mmHg 81%
    21:00 -14°C° 0 mm 3 mps 754 mmHg 81%
    22:00 -14°C° 0 mm 3 mps 754 mmHg 80%
    23:00 -15°C° 0 mm 3 mps 755 mmHg 80%

    27 January, Saturday

    Time Temperature Precipitation Wind Pressure Humidity
    00:00 -14°C° 0 mm 3 mps 755 mmHg 79%
    01:00 -14°C° 0 mm 3 mps 755 mmHg 79%
    02:00 -14°C° 0 mm 3 mps 755 mmHg 78%
    03:00 -14°C° 0 mm 3 mps 755 mmHg 77%
    04:00 -14°C° 0 mm 4 mps 755 mmHg 76%
    05:00 -14°C° 0 mm 4 mps 755 mmHg 76%
    06:00 -14°C° 0 mm 4 mps 755 mmHg 76%
    07:00 -13°C° 0 mm 3 mps 755 mmHg 76%
    08:00 -13°C° 0 mm 3 mps 755 mmHg 77%
    09:00 -12°C° 0 mm 3 mps 756 mmHg 75%
    10:00 -10°C° 0 mm 3 mps 756 mmHg 74%
    11:00 -10°C° 0 mm 3 mps 757 mmHg 73%
    12:00 -9°C° 0 mm 3 mps 757 mmHg 73%
    13:00 -9°C° 0 mm 3 mps 757 mmHg 74%
    14:00 -9°C° 0 mm 4 mps 757 mmHg 74%
    15:00 -10°C° 0 mm 4 mps 757 mmHg 75%
    16:00 -10°C° 0 mm 4 mps 757 mmHg 76%
    17:00 -11°C° 0 mm 4 mps 757 mmHg 77%
    18:00 -11°C° 0 mm 4 mps 757 mmHg 76%
    19:00 -11°C° 0 mm 4 mps 758 mmHg 76%
    20:00 -12°C° 0 mm 5 mps 758 mmHg 75%
    21:00 -12°C° 0 mm 5 mps 758 mmHg 74%
    22:00 -11°C° 0 mm 4 mps 759 mmHg 74%
    23:00 -11°C° 0 mm 4 mps 759 mmHg 73%

    28 January, Sunday

    Time Temperature Precipitation Wind Pressure Humidity
    00:00 -11°C° 0 mm 4 mps 759 mmHg 73%
    01:00 -11°C° 0 mm 4 mps 760 mmHg 73%
    02:00 -11°C° 0 mm 4 mps 760 mmHg 73%
    03:00 -11°C° 0 mm 4 mps 760 mmHg 74%
    04:00 -10°C° 0 mm 3 mps 760 mmHg 74%
    05:00 -10°C° 0 mm 3 mps 760 mmHg 75%
    06:00 -12°C° 0 mm 3 mps 760 mmHg 75%
    07:00 -12°C° 0 mm 3 mps 759 mmHg 76%
    08:00 -12°C° 0 mm 3 mps 759 mmHg 76%
    09:00 -10°C° 0 mm 2 mps 759 mmHg 75%
    10:00 -9°C° 0 mm 2 mps 759 mmHg 73%
    11:00 -9°C° 0 mm 2 mps 759 mmHg 72%
    12:00 -9°C° 0 mm 2 mps 759 mmHg 72%
    13:00 -8°C° 0 mm 2 mps 758 mmHg 72%
    14:00 -8°C° 0 mm 2 mps 758 mmHg 72%
    15:00 -9°C° 0 mm 2 mps 758 mmHg 72%
    16:00 -12°C° 0 mm 2 mps 757 mmHg 72%
    17:00 -13°C° 0 mm 2 mps 757 mmHg 72%
    18:00 -13°C° 0 mm 2 mps 757 mmHg 71%
    19:00 -13°C° 0 mm 2 mps 757 mmHg 71%
    20:00 -14°C° 0 mm 2 mps 757 mmHg 71%
    21:00 -14°C° 0 mm 2 mps 756 mmHg 71%
    22:00 -14°C° 0 mm 2 mps 756 mmHg 72%
    23:00 -15°C° 0 mm 2 mps 756 mmHg 73%
    Show more